{"data":{"norad_id":40107,"intl_designator":"2014-046A","name":"ASIASAT 8 (AMOS-7)","alt_names":[],"object_type":"PAYLOAD","status":"ACTIVE","operator":null,"country":"AC","launch_date":"2014-08-05","launch_site_code":"AFETR","launch_vehicle":null,"mission":null,"orbit_class":"UNKNOWN","rcs_meters":44.8232,"size_class":null,"mass_kg":null,"dimensions":null,"purposes":["comms"],"wikipedia_slug":null,"has_3d_model":false,"image_url":null,"decayed_at":null,"tle_current":{"epoch":"2026-05-25T00:49:21.410112Z","epoch_age_seconds":68566,"freshness":"FRESH","line1":"1 40107U 14046A   26145.03427558 -.00000336  00000+0  00000+0 0  9990","line2":"2 40107   0.0432 112.3585 0001454 295.5170 312.4086  1.00273145101910","mean_motion":1.00273145,"eccentricity":0.0001454,"inclination_deg":0.0432,"raan_deg":112.3585,"arg_perigee_deg":295.517,"mean_anomaly_deg":312.4086,"bstar":0,"rev_number":10191,"period_min":1436.0774263139,"perigee_km":35780.083011537,"apogee_km":35792.344404723,"semimajor_km":42164.35070813,"source":"CELESTRAK","updated_at":"2026-05-25T13:38:13.951127Z"}}}